Location: Sternwarte ZA, Rosenfeld-Brittheim
(48.2889°N, 8.6789°E)
Time: 17:41:31
(UTC+02:00)

ISS - Pass Details

Date: 31 May 2020
Orbit: 417 x 420 km, 51.6° (Epoch: 26 May)

Event Time Altitude Azimuth Distance (km) Brightness Sun altitude
Rises 22:22:22 0° 290° (WNW) 2,367 1.3 -8.9°
Reaches altitude 10° 22:24:36 10° 279° (W) 1,500 -0.1 -9.1°
Maximum altitude 22:27:36 30° 216° (SW) 777 -2.5 -9.4°
Enters shadow 22:30:04 13° 158° (SSE) 1,309 -1.9 -9.7°
